GW4109 Weather Reports


time (UTC)temp
C
wind
direction
speed
KPH
gust
KPH
rain 1hr
cm
rain 24hr
cm
rain mn
cm
humidity
%
barometer
mb
20260502170137 33 101 1.6 3.2 0.00 0.00 0.00 12 1015.6
20260502164124 32 91 6.4 8.0 0.00 0.00 0.00 16 1015.8
20260502163620 32 86 3.2 4.8 0.00 0.00 0.00 17 1015.9
20260502163117 32 80 1.6 4.8 0.00 0.00 0.00 17 1015.8
20260502162614 32 101 3.2 6.4 0.00 0.00 0.00 18 1015.8
20260502162111 32 93 3.2 4.8 0.00 0.00 0.00 18 1015.9
20260502161608 31 298 0.0 4.8 0.00 0.00 0.00 18 1015.8
20260502161105 31 67 3.2 4.8 0.00 0.00 0.00 19 1015.9
20260502160603 31 87 4.8 4.8 0.00 0.00 0.00 19 1015.9
20260502152010 28 76 0.0 1.6 0.00 0.00 0.00 22 1015.7
20260502151506 28 279 1.6 3.2 0.00 0.00 0.00 23 1015.8
20260502151004 28 205 0.0 1.6 0.00 0.00 0.00 23 1015.8
20260502150501 28 89 0.0 1.6 0.00 0.00 0.00 23 1015.8
20260502130346 18 247 3.2 6.4 0.00 0.00 0.00 33 1014.8
20260502123329 20 69 0.0 3.2 0.00 0.00 0.00 33 1014.7
20260502122826 20 293 0.0 6.4 0.00 0.00 0.00 34 1014.4
20260502122321 20 226 4.8 6.4 0.00 0.00 0.00 34 1014.4
20260502121821 18 60 3.2 3.2 0.00 0.00 0.00 35 1014.4
20260502121317 20 49 1.6 3.2 0.00 0.00 0.00 34 1014.5
20260502120814 20 95 3.2 4.8 0.00 0.00 0.00 33 1014.3
20260502120311 20 191 0.0 3.2 0.00 0.00 0.00 33 1014.2
20260502115809 18 202 0.0 1.6 0.00 0.00 0.00 34 1014.3
20260502115306 18 245 0.0 3.2 0.00 0.00 0.00 35 1014.1
20260502114801 18 168 1.6 3.2 0.00 0.00 0.00 35 1014.1
20260502114258 19 230 0.0 6.4 0.00 0.00 0.00 35 1014.1
20260502113755 20 277 0.0 3.2 0.00 0.00 0.00 35 1014.2
20260502113253 19 209 1.6 3.2 0.00 0.00 0.00 36 1014.3
20260502112751 18 260 3.2 4.8 0.00 0.00 0.00 37 1014.2
20260502112249 18 249 1.6 3.2 0.00 0.00 0.00 37 1014.2
20260502111745 18 232 0.0 4.8 0.00 0.00 0.00 38 1014.2
20260502111243 20 265 3.2 3.2 0.00 0.00 0.00 36 1014.3
20260502110740 20 134 0.0 3.2 0.00 0.00 0.00 37 1014.4
20260502110238 20 236 0.0 1.6 0.00 0.00 0.00 37 1014.2
20260502105736 19 240 0.0 1.6 0.00 0.00 0.00 37 1014.5
20260502105232 18 247 3.2 8.0 0.00 0.00 0.00 37 1014.2
20260502104730 19 245 4.8 4.8 0.00 0.00 0.00 36 1014.2
20260502104227 20 63 0.0 3.2 0.00 0.00 0.00 36 1014.4
20260502103725 20 95 4.8 4.8 0.00 0.00 0.00 35 1014.2
20260502103222 21 334 3.2 4.8 0.00 0.00 0.00 32 1014.0
20260502102719 22 343 4.8 6.4 0.00 0.00 0.00 29 1014.0
20260502102215 22 183 0.0 3.2 0.00 0.00 0.00 29 1013.8
20260502101714 21 134 0.0 3.2 0.00 0.00 0.00 31 1013.8
20260502101212 21 182 0.0 4.8 0.00 0.00 0.00 31 1013.9
20260502100709 21 108 0.0 3.2 0.00 0.00 0.00 33 1013.7
20260502100208 21 213 3.2 4.8 0.00 0.00 0.00 33 1013.6
20260502091142 21 133 0.0 1.6 0.00 0.00 0.00 36 1014.0
20260502090639 21 66 0.0 3.2 0.00 0.00 0.00 34 1013.9
20260502090136 21 210 1.6 3.2 0.00 0.00 0.00 35 1014.0
20260502071533 22 252 0.0 3.2 0.00 0.00 0.00 34 1014.2
20260502071031 22 6 0.0 3.2 0.00 0.00 0.00 35 1014.3
20260502070529 23 315 1.6 3.2 0.00 0.00 0.00 33 1014.2
20260502070027 24 329 0.0 6.4 0.00 0.00 0.00 31 1014.2
20260502065525 25 235 0.0 6.4 0.00 0.00 0.00 27 1014.1
20260502065023 25 221 3.2 8.0 0.00 0.00 0.00 26 1014.2
20260502064521 25 201 3.2 8.0 0.00 0.00 0.00 26 1014.3
20260502064018 25 221 3.2 6.4 0.00 0.00 0.00 28 1014.2
20260502063515 23 254 3.2 8.0 0.00 0.00 0.00 30 1014.3
20260502063013 23 230 0.0 3.2 0.00 0.00 0.00 30 1014.3
20260502062510 23 200 0.0 1.6 0.00 0.00 0.00 30 1014.4
20260502062009 24 139 0.0 3.2 0.00 0.00 0.00 29 1014.2
20260502061506 25 89 0.0 3.2 0.00 0.00 0.00 31 1014.1
20260502061003 25 338 1.6 4.8 0.00 0.00 0.00 31 1014.3
20260502060457 26 246 0.0 1.6 0.00 0.00 0.00 31 1014.1
20260502055954 26 104 4.8 4.8 0.00 0.00 0.00 30 1014.0
20260502055452 26 281 0.0 4.8 0.00 0.00 0.00 29 1014.2
20260502054946 27 185 3.2 4.8 0.00 0.00 0.00 28 1014.1
20260502054444 26 211 0.0 6.4 0.00 0.00 0.00 28 1013.8
20260502053941 26 205 1.6 6.4 0.00 0.00 0.00 28 1014.0
20260502053437 26 72 0.0 3.2 0.00 0.00 0.00 27 1013.9
20260502052935 26 259 1.6 4.8 0.00 0.00 0.00 28 1013.8
20260502052433 26 247 1.6 1.6 0.00 0.00 0.00 27 1014.0
20260502051932 26 53 3.2 4.8 0.00 0.00 0.00 27 1013.9
20260502051429 27 104 3.2 8.0 0.00 0.00 0.00 25 1013.9
20260502050926 27 279 1.6 3.2 0.00 0.00 0.00 24 1013.9
20260502050423 27 236 4.8 6.4 0.00 0.00 0.00 23 1013.8
20260502045920 27 62 3.2 3.2 0.00 0.00 0.00 26 1013.9
20260502045416 27 354 4.8 4.8 0.00 0.00 0.00 25 1013.6
20260502044914 28 291 1.6 4.8 0.00 0.00 0.00 24 1013.6
20260502044409 28 248 3.2 3.2 0.00 0.00 0.00 24 1013.6
20260502043906 28 300 3.2 8.0 0.00 0.00 0.00 22 1013.5
20260502043404 29 304 4.8 8.0 0.00 0.00 0.00 22 1013.7
20260502042903 29 267 4.8 11.3 0.00 0.00 0.00 22 1013.4
20260502042401 29 249 12.9 16.1 0.00 0.00 0.00 22 1013.4
20260502041858 29 241 9.7 11.3 0.00 0.00 0.00 22 1013.3
20260502041355 30 253 9.7 17.7 0.00 0.00 0.00 23 1013.4
20260502040853 30 233 4.8 19.3 0.00 0.00 0.00 23 1013.3
20260502040349 30 240 8.0 9.7 0.00 0.00 0.00 23 1013.2
20260502035845 30 244 8.0 17.7 0.00 0.00 0.00 23 1013.1
20260502035342 30 233 4.8 19.3 0.00 0.00 0.00 23 1013.0
20260502034839 30 253 11.3 16.1 0.00 0.00 0.00 23 1012.8
20260502034338 30 246 4.8 17.7 0.00 0.00 0.00 23 1012.8
20260502033836 30 262 14.5 19.3 0.00 0.00 0.00 23 1012.5
20260502033333 30 286 6.4 20.9 0.00 0.00 0.00 23 1012.5
20260502032830 30 268 6.4 14.5 0.00 0.00 0.00 24 1012.6
20260502032326 30 316 14.5 20.9 0.00 0.00 0.00 24 1012.4
20260502031824 30 274 8.0 29.0 0.00 0.00 0.00 25 1012.3
20260502031322 30 323 14.5 22.5 0.00 0.00 0.00 25 1012.2
20260502030820 30 316 16.1 24.1 0.00 0.00 0.00 26 1012.0
20260502030318 30 319 22.5 27.4 0.00 0.00 0.00 25 1012.3
20260502025815 30 284 12.9 29.0 0.00 0.00 0.00 24 1012.2
20260502025313 30 304 16.1 24.1 0.00 0.00 0.00 24 1011.8
20260502024810 30 309 14.5 24.1 0.00 0.00 0.00 22 1011.8
20260502024308 30 322 14.5 25.7 0.00 0.00 0.00 23 1012.0
20260502023805 30 302 14.5 22.5 0.00 0.00 0.00 23 1012.0
20260502023303 30 303 14.5 22.5 0.00 0.00 0.00 24 1011.7
20260502022800 30 312 14.5 24.1 0.00 0.00 0.00 24 1011.7
20260502022256 30 320 16.1 24.1 0.00 0.00 0.00 24 1011.8
20260502021753 30 286 8.0 29.0 0.00 0.00 0.00 25 1011.6
20260502021251 30 310 20.9 27.4 0.00 0.00 0.00 25 1011.6
20260502020748 31 297 20.9 24.1 0.00 0.00 0.00 24 1011.7
20260502020246 31 300 9.7 25.7 0.00 0.00 0.00 24 1011.7
20260502015743 31 317 22.5 27.4 0.00 0.00 0.00 23 1011.5
20260502015239 31 302 14.5 25.7 0.00 0.00 0.00 24 1011.5
20260502014737 31 306 14.5 22.5 0.00 0.00 0.00 24 1011.5
20260502014233 31 313 6.4 25.7 0.00 0.00 0.00 23 1011.4
20260502013730 32 299 9.7 17.7 0.00 0.00 0.00 22 1011.7
20260502013225 32 290 6.4 14.5 0.00 0.00 0.00 22 1011.6
20260502012722 32 341 11.3 19.3 0.00 0.00 0.00 22 1011.4
20260502012220 32 254 11.3 19.3 0.00 0.00 0.00 21 1011.4
20260502011712 33 320 16.1 20.9 0.00 0.00 0.00 21 1011.4
20260502011207 33 262 14.5 16.1 0.00 0.00 0.00 20 1011.4
20260502010706 33 244 20.9 27.4 0.00 0.00 0.00 20 1011.5
20260502010201 34 262 6.4 17.7 0.00 0.00 0.00 19 1011.5
20260502005658 34 250 11.3 20.9 0.00 0.00 0.00 19 1011.4
20260502005156 35 269 14.5 17.7 0.00 0.00 0.00 19 1011.5
20260502004652 34 254 14.5 20.9 0.00 0.00 0.00 19 1011.4
20260502004148 34 252 9.7 27.4 0.00 0.00 0.00 19 1011.1
20260502003646 34 240 20.9 29.0 0.00 0.00 0.00 19 1011.2
20260502003144 35 262 11.3 19.3 0.00 0.00 0.00 19 1011.4
20260502002640 34 276 9.7 22.5 0.00 0.00 0.00 19 1011.3
20260502002137 34 254 8.0 24.1 0.00 0.00 0.00 19 1011.2
20260502001635 35 278 6.4 14.5 0.00 0.00 0.00 19 1011.4
20260502001132 35 325 8.0 16.1 0.00 0.00 0.00 18 1011.3
20260502000630 35 296 4.8 9.7 0.00 0.00 0.00 18 1011.3
20260502000128 36 64 3.2 4.8 0.00 0.00 0.00 15 1011.4
20260501235623 36 244 4.8 8.0 0.00 0.00 0.00 15 1011.6
20260501235119 36 250 3.2 3.2 0.00 0.00 0.00 14 1011.3
20260501234614 36 210 4.8 8.0 0.00 0.00 0.00 14 1011.3
20260501234112 35 183 8.0 9.7 0.00 0.00 0.00 15 1011.5
20260501233610 35 68 0.0 11.3 0.00 0.00 0.00 15 1011.4
20260501233108 35 50 0.0 3.2 0.00 0.00 0.00 14 1011.3
20260501232603 35 103 0.0 3.2 0.00 0.00 0.00 15 1011.5
20260501232101 35 180 1.6 6.4 0.00 0.00 0.00 15 1011.5
20260501231558 35 136 3.2 6.4 0.00 0.00 0.00 14 1011.5
20260501231056 35 68 1.6 8.0 0.00 0.00 0.00 15 1011.7
20260501230555 34 274 0.0 4.8 0.00 0.00 0.00 15 1011.7
20260501230052 33 93 4.8 6.4 0.00 0.00 0.00 15 1011.6
20260501225549 33 81 9.7 16.1 0.00 0.00 0.00 15 1011.8
20260501225046 34 94 9.7 9.7 0.00 0.00 0.00 15 1011.8
20260501224543 34 14 0.0 8.0 0.00 0.00 0.00 15 1012.0
20260501224040 35 238 4.8 6.4 0.00 0.00 0.00 15 1012.1
20260501223536 35 114 12.9 17.7 0.00 0.00 0.00 14 1011.8
20260501223033 35 104 9.7 9.7 0.00 0.00 0.00 14 1012.2
20260501222529 33 71 1.6 12.9 0.00 0.00 0.00 15 1012.0
20260501222026 33 98 3.2 9.7 0.00 0.00 0.00 15 1012.2
20260501221523 35 115 14.5 17.7 0.00 0.00 0.00 15 1012.4
20260501221021 34 182 1.6 14.5 0.00 0.00 0.00 15 1012.4
20260501220519 35 103 12.9 14.5 0.00 0.00 0.00 14 1012.6
20260501220015 35 128 0.0 6.4 0.00 0.00 0.00 14 1012.6
20260501215511 35 146 3.2 6.4 0.00 0.00 0.00 15 1012.6
20260501215006 36 91 8.0 11.3 0.00 0.00 0.00 14 1012.7
20260501214502 35 114 3.2 6.4 0.00 0.00 0.00 14 1012.9
20260501213958 34 290 4.8 8.0 0.00 0.00 0.00 14 1013.0
20260501213455 35 105 4.8 9.7 0.00 0.00 0.00 14 1013.0
20260501212955 35 123 4.8 9.7 0.00 0.00 0.00 13 1013.2
20260501212453 35 109 3.2 12.9 0.00 0.00 0.00 14 1013.3
20260501211950 35 98 11.3 20.9 0.00 0.00 0.00 14 1013.2
20260501211447 35 149 4.8 8.0 0.00 0.00 0.00 14 1013.4
20260501210944 35 110 11.3 16.1 0.00 0.00 0.00 14 1013.6
20260501210441 35 107 4.8 6.4 0.00 0.00 0.00 14 1013.4
20260501205937 35 180 3.2 9.7 0.00 0.00 0.00 14 1013.5
20260501205434 35 84 1.6 4.8 0.00 0.00 0.00 15 1013.4
20260501204932 33 97 4.8 12.9 0.00 0.00 0.00 15 1013.7
20260501204427 33 188 0.0 9.7 0.00 0.00 0.00 16 1013.6
20260501203924 33 98 9.7 12.9 0.00 0.00 0.00 15 1013.7
20260501203421 35 141 6.4 6.4 0.00 0.00 0.00 15 1013.8
20260501202918 34 146 3.2 6.4 0.00 0.00 0.00 16 1013.7
20260501202415 33 106 11.3 14.5 0.00 0.00 0.00 16 1013.8
20260501201912 33 117 14.5 14.5 0.00 0.00 0.00 17 1013.9
20260501201409 35 116 6.4 17.7 0.00 0.00 0.00 16 1013.7
20260501200905 35 172 6.4 6.4 0.00 0.00 0.00 17 1013.7
20260501200402 33 79 6.4 9.7 0.00 0.00 0.00 17 1013.9
20260501195900 32 121 4.8 12.9 0.00 0.00 0.00 19 1013.9
20260501195355 33 67 3.2 6.4 0.00 0.00 0.00 19 1014.0
20260501194852 33 125 14.5 14.5 0.00 0.00 0.00 19 1014.1
20260501194348 32 193 3.2 17.7 0.00 0.00 0.00 21 1014.3
20260501193844 33 105 6.4 9.7 0.00 0.00 0.00 22 1014.3
20260501193343 33 142 3.2 6.4 0.00 0.00 0.00 22 1014.1
20260501192840 33 114 4.8 14.5 0.00 0.00 0.00 22 1014.5
20260501192337 33 136 3.2 8.0 0.00 0.00 0.00 22 1014.3
20260501191834 33 224 0.0 8.0 0.00 0.00 0.00 22 1014.4
20260501191331 33 207 3.2 6.4 0.00 0.00 0.00 22 1014.5
20260501190828 32 176 0.0 6.4 0.00 0.00 0.00 21 1014.7
20260501190324 32 291 1.6 6.4 0.00 0.00 0.00 21 1014.6
20260501185819 32 209 6.4 9.7 0.00 0.00 0.00 21 1014.6
20260501185316 32 163 4.8 8.0 0.00 0.00 0.00 21 1014.8
20260501184811 32 163 0.0 8.0 0.00 0.00 0.00 23 1014.8
20260501184307 32 91 4.8 11.3 0.00 0.00 0.00 23 1015.0
20260501183803 32 103 3.2 9.7 0.00 0.00 0.00 23 1014.8
20260501183301 31 179 6.4 9.7 0.00 0.00 0.00 23 1014.8
20260501182757 31 78 0.0 6.4 0.00 0.00 0.00 24 1015.0
20260501182254 31 95 9.7 16.1 0.00 0.00 0.00 24 1014.8
20260501181750 32 103 8.0 11.3 0.00 0.00 0.00 21 1014.9
20260501181248 31 104 3.2 11.3 0.00 0.00 0.00 21 1015.2
20260501180746 31 96 4.8 9.7 0.00 0.00 0.00 21 1015.1
20260501180236 31 148 4.8 9.7 0.00 0.00 0.00 22 1015.1
20260501175733 32 64 4.8 11.3 0.00 0.00 0.00 22 1015.1
20260501175231 31 88 8.0 11.3 0.00 0.00 0.00 22 1015.0
20260501174726 31 59 3.2 4.8 0.00 0.00 0.00 23 1015.0
20260501174224 31 84 1.6 9.7 0.00 0.00 0.00 24 1015.1
20260501173722 30 95 4.8 6.4 0.00 0.00 0.00 23 1015.0